Weather History for PHLI - December, 2011

Change the Weather History Date:

Thursday, December 29, 2011

  Actual Average Record
Temperature  
Mean Temperature 75 °F 72 °F  
Max Temperature 78 °F 78 °F 85 °F (1981)
Min Temperature 71 °F 66 °F 56 °F (1953)
Degree Days  
Heating Degree Days 0 0  
Month to date heating degree days 0 0  
Since 1 July heating degree days 0 0  
Cooling Degree Days 10 7  
Month to date cooling degree days 232 239  
Year to date cooling degree days 4120 3930  
Growing Degree Days 25 (Base 50)    
Moisture  
Dew Point 63 °F    
Average Humidity 71    
Maximum Humidity 84    
Minimum Humidity 57    
Precipitation  
Precipitation 0.02 in 0.16 in 1.36 in (1992)
Month to date precipitation 1.59 4.91  
Year to date precipitation 41.13 36.76  
Snow  
Snow 0.00 in - - ()
Month to date snowfall 0.0  
Since 1 July snowfall 0.0  
Snow Depth 0.00 in    
Sea Level Pressure  
Sea Level Pressure 30.14 in    
Wind  
Wind Speed 15 mph (ENE)    
Max Wind Speed 23 mph    
Max Gust Speed 26 mph    
Visibility 10 miles    
Events Rain    
T = Trace of Precipitation, MM = Missing Value Source: NWS Daily Summary

Daily Weather History Graph

Daily Weather History Graph

Search for Another Location

Airport or City:

Trip Planner

Search our weather history database for the weather conditions in past years. The results will help you decide how hot, cold, wet, or windy it might be!

Date:

Astronomy

Dec. 29, 2011 Rise Set
Actual Time 7:15 AM HST 6:03 PM HST
Civil Twilight 6:50 AM HST 6:28 PM HST
Nautical Twilight 6:23 AM HST 6:55 PM HST
Astronomical Twilight 5:55 AM HST 7:23 PM HST
Moon 10:52 AM HST 11:08 PM HST
Length of Visible Light 11h 37m
Length of Day
10h 48m
Waxing Crescent, 28% of the Moon is Illuminated
Dec 29
Waxing Crescent
Dec 31
First Quarter
Jan 8
Full
Jan 15
Last Quarter
Jan 22
New

Hourly Weather History & Observations

Time (HST) Temp. Dew Point Humidity Pressure Visibility Wind Dir Wind Speed Gust Speed Precip Events Conditions
12:53 AM 73.0 °F 66.0 °F 79% 30.18 in 10.0 mi ENE 13.8 mph - N/A   Mostly Cloudy
1:53 AM 73.0 °F 64.9 °F 76% 30.16 in 10.0 mi ENE 11.5 mph - 0.01 in   Partly Cloudy
2:28 AM 73.4 °F 66.2 °F 78% 30.16 in 10.0 mi ENE 13.8 mph - 0.00 in   Overcast
2:53 AM 73.0 °F 66.9 °F 81% 30.14 in 10.0 mi ENE 12.7 mph - 0.00 in   Overcast
3:53 AM 72.0 °F 66.9 °F 84% 30.15 in 9.0 mi ENE 16.1 mph - 0.00 in Rain Light Rain
4:53 AM 73.0 °F 66.0 °F 79% 30.15 in 10.0 mi ENE 13.8 mph - 0.00 in   Overcast
5:53 AM 73.0 °F 66.0 °F 79% 30.15 in 10.0 mi ENE 15.0 mph - N/A   Partly Cloudy
6:53 AM 73.0 °F 64.9 °F 76% 30.16 in 10.0 mi East 17.3 mph - N/A   Overcast
7:53 AM 73.0 °F 64.0 °F 73% 30.18 in 10.0 mi ENE 16.1 mph - 0.01 in   Scattered Clouds
8:53 AM 73.9 °F 64.0 °F 71% 30.20 in 10.0 mi East 18.4 mph - N/A   Overcast
9:53 AM 73.9 °F 63.0 °F 68% 30.21 in 10.0 mi ENE 18.4 mph - N/A   Overcast
10:53 AM 78.1 °F 63.0 °F 60% 30.19 in 10.0 mi ENE 17.3 mph - N/A   Overcast
11:53 AM 78.1 °F 63.0 °F 60% 30.16 in 10.0 mi ENE 13.8 mph - N/A   Scattered Clouds
12:53 PM 75.0 °F 63.0 °F 66% 30.14 in 10.0 mi NE 13.8 mph - N/A   Overcast
1:53 PM 75.0 °F 64.0 °F 69% 30.11 in 10.0 mi NE 16.1 mph - N/A   Overcast
2:53 PM 75.9 °F 62.1 °F 62% 30.09 in 10.0 mi ENE 16.1 mph - N/A   Overcast
3:53 PM 75.0 °F 62.1 °F 64% 30.09 in 10.0 mi ENE 15.0 mph - N/A   Mostly Cloudy
4:53 PM 75.0 °F 61.0 °F 62% 30.10 in 10.0 mi ENE 12.7 mph - N/A   Mostly Cloudy
5:53 PM 73.0 °F 57.9 °F 59% 30.11 in 10.0 mi ENE 12.7 mph - N/A   Partly Cloudy
6:53 PM 72.0 °F 60.1 °F 66% 30.11 in 10.0 mi NE 12.7 mph - N/A   Scattered Clouds
7:53 PM 73.0 °F 61.0 °F 66% 30.11 in 10.0 mi ENE 13.8 mph - N/A   Partly Cloudy
8:53 PM 72.0 °F 62.1 °F 71% 30.12 in 10.0 mi ENE 15.0 mph - N/A   Clear
9:53 PM 73.0 °F 61.0 °F 66% 30.13 in 10.0 mi ENE 15.0 mph - N/A   Scattered Clouds
10:53 PM 72.0 °F 59.0 °F 64% 30.12 in 10.0 mi ENE 12.7 mph - N/A   Partly Cloudy
11:53 PM 73.0 °F 62.1 °F 68% 30.10 in 10.0 mi ENE 12.7 mph - 0.00 in   Overcast